Flag for India Weather past 2 weeks in Thiruvananthapuram, Kerala, India

Now
84 °F

Partly cloudy.


Feels Like: 91 °F
Forecast: 73 / 93 °F
Wind: 3 mph from Northeast

Location: Thiruvananthapuram

Current Time: Feb 27, 2015 at 9:07:56 PM

Latest Report: Feb 27, 2015 at 7:40 PM


Visibility: 3 mi

Pressure: 29.80 "Hg

Humidity: 70%

Dew point: 73 °F

Location of ThiruvananthapuramLocation

Historic Weather in Thiruvananthapuram — Graph

°F

Thiruvananthapuram temperature yesterday

Maximum temperature yesterday: 90 °F (at 11:40 AM)
Minimum temperature yesterday: 77 °F (at 6:40 AM)
Average temperature yesterday: 84 °F

Past Weeks' High & Low Weather Summary

 TemperatureHumidityPressure
High91 °F (Feb 13, 2:40 PM)89% (Feb 13, 4:40 AM)29.95 "Hg (Feb 13, 4:40 AM)
Low73 °F (Feb 17, 7:40 AM)38% (Feb 22, 10:40 AM)29.74 "Hg (Feb 21, 5:40 PM)
Average83 °F71%29.84 "Hg
* Reported Feb 12 7:40 PM — Feb 27 7:40 PM, Thiruvananthapuram, Weather by CustomWeather, © 2015

Note: Actual official high and low records may vary slightly from our data, if they occured in-between our weather recording intervals... More about our weather records

Advertising

Thiruvananthapuram weather history for previous 24 hours

 ConditionsComfort  
Time TempWeatherWind HumidityBarometerVisibility
7:40 PM
Fri, Feb 27
84 °FPartly cloudy.3 mph70%29.80 "Hg3 mi
6:40 PM84 °FBroken clouds.3 mph79%29.77 "Hg3 mi
5:40 PM86 °FScattered clouds.3 mph75%29.77 "Hg3 mi
4:40 PM86 °FBroken clouds.3 mph75%29.77 "Hg3 mi
3:40 PM90 °FScattered clouds.6 mph67%29.77 "Hg4 mi
2:40 PM90 °FScattered clouds.7 mph67%29.77 "Hg4 mi
1:40 PM90 °FScattered clouds.7 mph67%29.80 "Hg4 mi
12:40 PM88 °FScattered clouds.6 mph70%29.83 "Hg4 mi
11:40 AM88 °FScattered clouds.5 mph70%29.86 "Hg4 mi
9:40 AM86 °FScattered clouds.3 mph75%29.86 "Hg2 mi
8:40 AM84 °FScattered clouds.2 mph74%29.86 "Hg2 mi
7:40 AM81 °FHaze.No wind79%29.83 "Hg2 mi
6:40 AM81 °FPassing clouds.No wind79%29.80 "Hg2 mi
5:40 AM79 °FHaze.No wind84%29.77 "Hg2 mi
4:40 AM79 °FHaze.No wind84%29.74 "Hg2 mi
3:40 AM79 °FHaze.No wind84%29.74 "Hg2 mi
2:40 AM79 °FHaze.No wind84%29.77 "Hg2 mi
1:40 AM79 °FHaze.No wind84%29.77 "Hg2 mi
12:40 AM79 °FHaze.No wind84%29.80 "Hg2 mi
11:40 PM
Thu, Feb 26
81 °FHaze.No wind79%29.83 "Hg2 mi
10:40 PM81 °FHaze.No wind79%29.83 "Hg2 mi
9:40 PM81 °FHaze.2 mph79%29.83 "Hg2 mi
Weather by CustomWeather, © 2015

See weather overviewHow to use our weather pages